TimeEDT,TemperatureF,Dew PointF,Humidity,Sea Level PressureIn,VisibilityMPH,Wind Direction,Wind SpeedMPH,Gust SpeedMPH,PrecipitationIn,Events,Conditions,WindDirDegrees,DateUTC
12:54 AM,30.0,12.0,47,29.81,10.0,WNW,8.1,18.4,N/A,,Overcast,300,2013-04-03 04:54:00
1:54 AM,26.1,19.9,78,29.83,3.0,West,8.1,16.1,0.00,Snow,Light Snow,280,2013-04-03 05:54:00
2:54 AM,28.0,10.0,47,29.82,10.0,WNW,11.5,21.9,0.00,,Overcast,300,2013-04-03 06:54:00
3:54 AM,28.0,8.1,43,29.82,10.0,WNW,8.1,18.4,N/A,,Overcast,290,2013-04-03 07:54:00
4:54 AM,27.0,7.0,43,29.83,10.0,West,8.1,-,N/A,,Partly Cloudy,270,2013-04-03 08:54:00
5:54 AM,27.0,10.0,49,29.83,10.0,West,12.7,18.4,N/A,,Overcast,270,2013-04-03 09:54:00
6:54 AM,27.0,8.1,45,29.85,10.0,West,9.2,16.1,N/A,,Clear,270,2013-04-03 10:54:00
7:54 AM,28.9,9.0,43,29.86,10.0,West,6.9,20.7,N/A,,Clear,260,2013-04-03 11:54:00
8:54 AM,30.9,9.0,40,29.86,10.0,West,9.2,19.6,N/A,,Clear,260,2013-04-03 12:54:00
9:54 AM,34.0,7.0,32,29.86,10.0,NNW,9.2,19.6,N/A,,Clear,330,2013-04-03 13:54:00
10:54 AM,36.0,7.0,30,29.86,10.0,NW,10.4,19.6,0.00,,Clear,320,2013-04-03 14:54:00
11:54 AM,37.9,5.0,25,29.85,10.0,West,8.1,20.7,N/A,,Clear,280,2013-04-03 15:54:00
12:54 PM,39.9,5.0,23,29.86,10.0,WNW,16.1,24.2,0.00,,Clear,290,2013-04-03 16:54:00
1:54 PM,39.9,5.0,23,29.86,10.0,WNW,9.2,25.3,N/A,,Clear,300,2013-04-03 17:54:00
2:54 PM,43.0,5.0,21,29.86,10.0,WNW,10.4,21.9,N/A,,Clear,290,2013-04-03 18:54:00
3:54 PM,43.0,5.0,21,29.87,10.0,WNW,8.1,20.7,N/A,,Clear,300,2013-04-03 19:54:00
4:54 PM,43.0,5.0,21,29.88,10.0,WNW,11.5,23.0,N/A,,Clear,300,2013-04-03 20:54:00
5:54 PM,39.9,7.0,26,29.91,10.0,WNW,11.5,26.5,N/A,,Clear,300,2013-04-03 21:54:00
6:54 PM,37.0,9.0,31,29.95,10.0,WNW,11.5,19.6,N/A,,Clear,290,2013-04-03 22:54:00
7:54 PM,35.1,10.9,37,29.99,10.0,WNW,9.2,-,N/A,,Clear,300,2013-04-03 23:54:00
8:54 PM,34.0,12.0,40,30.04,10.0,NW,12.7,20.7,N/A,,Partly Cloudy,310,2013-04-04 00:54:00
9:54 PM,33.1,15.1,48,30.05,10.0,WNW,10.4,31.1,N/A,,Partly Cloudy,290,2013-04-04 01:54:00
10:54 PM,33.1,16.0,50,30.05,10.0,WNW,21.9,34.5,N/A,,Mostly Cloudy,300,2013-04-04 02:54:00
11:54 PM,32.0,16.0,52,30.08,10.0,West,13.8,26.5,N/A,,Clear,280,2013-04-04 03:54:00